Weather in Medias

Romania     46°09′45″N   24°21′20″E
temp.,
°C
wind,
m/s
gust,
m/s
humid.,
%
clouds,
%
prec.,
mm/h
press.,
hPa
HPBL,
m
15 april, thu
thu1500:00+1ssw12100100 1.8 1018180
03:00+1wsw13100100 3.0 1018215
06:00+1nw02100100 0.8 1019156
09:00+1nne1299100 1.5 1020147
12:00+3nw1286100 0.3 1020529
15:00+5nw128297 0.7 1019697
18:00+4n4596100 0.9 1019479
21:00+2nne2590100 1.1 1020337
16 april, fri
fri1600:00+1sw1198100 0.1 102061
03:00+1sw1296100 0.1 1020234
06:00+1sw1397100 0.1 1019356
09:00+2wsw3493100 0.2 1020385
12:00+6w2365100 0.1 10201263
15:00+8w245199 0.3 10191704
18:00+8w345388 0.1 10191394
21:00+3w127899 0.1 102125
17 april, sat
sat1700:00+4ene118296 0.0 102121
03:00+1se118998 0.0 102110
06:000ese1190100 0.0 102110
09:00+4ese1275100 0.0 1021290
12:00+9e225654 0.0 1019976
15:00+12e3346100 0.0 10161412
18:00+11nne2357100 0.0 1015120
21:00+9nnw1158100 0.0 101411
18 april, sun
sun1800:00+6ese2276100 0.0 101613
03:00+5ene227799 0.0 101512
06:00+4ene2282100 0.0 101518
09:00+7e41064100 0.0 1015710
12:00+10ese5661100 0.1 10151248
15:00+11ese3560100 0.2 10141402
18:00+8e1292100 3.2 1015342
21:00+7ese4894100 4.4 1015394
19 april, mon
mon1900:00+6ese3693100 0.8 1016327
03:00+6e249398 0.8 1015229
06:00+6ne1193100 0.0 101439
09:00+6ene1288100 0.0 1013265
12:00+7ne2487100 0.0 1013465
15:00+7nnw3490100 0.2 1011317
18:00+7nnw2695100 1.5 1009392
21:00+6nw2697100 5.3 1009265